Date String (YYYY-MM-DD hh:mm:ss) UTC,Instrument flags,absolute air pressure of the measurement (hPa),sample flow rate (lpm),inlet stack bypass flow (lpm),air temperature of the measurement (°C),ambient temperature measured by the external sensor (°C),aerosol sample conditioner tube jacket temperature (°C),OPC LED temperature (°C),internal box temperature (°C),relative humidity of the measurement (%),span deviation,mass concentration of particles derived from Lorenz-Mie calculation of OPC scattering (μg/m³),mass concentration of particles derived from Lorenz-Mie calculation of OPC scattering (μg/m³),mass concentration of particles derived from Lorenz-Mie calculation of OPC scattering (μg/m³)
DateTimeUTC,F1_M11,P_M11,Q1_M11,Q2_M11,T1_M11,T2_M11,T3_M11,T4_M11,T5_M11,U1_M11,ZSPAN_M11,X2_M11,X0_M11,X1_M11
2023-09-05 17:00:00,SystemResetWarning,0833.6,5.01,000.00,028.2,025.3,000.0,036.5,029.5,23.5,0000.0,0002.80,0011.28,0001.98
2023-09-05 17:01:00,SystemResetWarning,0833.6,5.01,000.00,028.2,025.5,000.0,036.5,029.5,23.5,0000.0,0002.85,0011.74,0001.98
2023-09-05 17:02:00,SystemResetWarning,0833.5,5.00,000.00,028.2,025.8,000.0,036.5,029.5,23.5,0000.0,0002.89,0011.19,0002.00
2023-09-05 17:03:00,SystemResetWarning,0833.5,5.00,000.00,028.2,026.1,000.0,036.6,029.6,23.3,0000.0,0002.95,0011.45,0002.01
2023-09-05 17:04:00,SystemResetWarning,0833.5,5.00,000.00,028.2,026.4,000.0,036.6,029.7,23.7,0000.0,0002.90,0012.45,0002.02
2023-09-05 17:05:00,SystemResetWarning,0833.5,5.00,000.00,028.2,026.6,000.0,036.6,029.8,23.6,0000.0,0002.89,0012.30,0002.03
2023-09-05 17:06:00,SystemResetWarning,0833.5,5.00,000.00,028.2,026.8,000.0,036.6,029.9,23.5,0000.0,0002.87,0012.37,0002.04
2023-09-05 17:07:00,SystemResetWarning,0833.5,5.00,000.00,028.3,027.0,000.0,036.6,029.9,23.2,0000.0,0002.90,0012.00,0002.06
2023-09-05 17:08:00,SystemResetWarning,0833.5,5.00,000.00,028.3,027.1,000.0,036.6,030.0,23.0,0000.0,0002.88,0010.24,0002.07
2023-09-05 17:09:00,SystemResetWarning,0833.4,4.99,000.00,028.4,027.2,000.0,036.7,030.1,22.9,0000.0,0002.90,0009.97,0002.08
2023-09-05 17:10:00,SystemResetWarning,0833.4,4.99,000.00,028.4,026.4,000.0,036.6,029.8,23.1,0000.0,0002.88,0009.43,0002.08
2023-09-05 17:11:00,SystemResetWarning,0833.4,5.01,000.00,028.2,024.8,000.0,036.5,029.3,23.1,0000.0,0002.87,0009.07,0002.09
2023-09-05 17:12:00,SystemResetWarning,0833.4,5.00,000.00,028.1,024.2,000.0,036.4,029.2,23.6,0000.0,0002.88,0008.48,0002.10
2023-09-05 17:13:00,SystemResetWarning,0833.4,5.01,000.00,028.0,024.5,000.0,036.4,029.1,23.7,0000.0,0002.90,0008.51,0002.10
2023-09-05 17:14:00,SystemResetWarning,0833.4,5.01,000.00,027.9,024.8,000.0,036.4,029.2,24.0,0000.0,0002.95,0008.77,0002.11
2023-09-05 17:15:00,SystemResetWarning,0833.4,5.00,000.00,027.9,025.3,000.0,036.4,029.3,23.8,0000.0,0002.97,0007.42,0002.14
2023-09-05 17:16:00,SystemResetWarning,0833.4,5.00,000.00,027.9,025.6,000.0,036.4,029.4,24.1,0000.0,0003.03,0007.47,0002.16
2023-09-05 17:17:00,SystemResetWarning,0833.4,5.00,000.00,028.0,026.0,000.0,036.4,029.5,24.1,0000.0,0003.11,0007.59,0002.18
2023-09-05 17:18:00,SystemResetWarning,0833.4,5.00,000.00,028.0,026.2,000.0,036.4,029.6,24.0,0000.0,0003.12,0008.09,0002.20
2023-09-05 17:19:00,SystemResetWarning,0833.4,5.00,000.00,028.1,026.5,000.0,036.4,029.7,24.4,0000.0,0003.14,0008.17,0002.22
2023-09-05 17:20:00,SystemResetWarning,0833.4,5.00,000.00,028.1,026.7,000.0,036.5,029.7,24.2,0000.0,0003.17,0008.25,0002.25
2023-09-05 17:21:00,SystemResetWarning,0833.4,5.00,000.00,028.1,026.9,000.0,036.5,029.8,23.9,0000.0,0003.16,0008.62,0002.26
2023-09-05 17:22:00,SystemResetWarning,0833.4,5.01,000.00,028.2,027.0,000.0,036.5,029.9,23.2,0000.0,0003.17,0008.86,0002.27
2023-09-05 17:23:00,SystemResetWarning,0833.5,5.00,000.00,028.2,027.1,000.0,036.5,029.9,23.7,0000.0,0003.19,0008.92,0002.27
2023-09-05 17:24:00,SystemResetWarning,0833.4,5.00,000.00,028.3,027.2,000.0,036.5,030.0,23.9,0000.0,0003.21,0008.92,0002.27
2023-09-05 17:25:00,SystemResetWarning,0833.4,5.00,000.00,028.3,027.3,000.0,036.6,030.0,23.9,0000.0,0003.19,0008.88,0002.25
2023-09-05 17:26:00,SystemResetWarning,0833.4,4.98,000.00,028.3,026.5,000.0,036.5,029.8,23.5,0000.0,0003.21,0009.07,0002.24
2023-09-05 17:27:00,SystemResetWarning,0833.4,5.00,000.00,028.2,024.8,000.0,036.4,029.2,23.7,0000.0,0003.23,0009.38,0002.22
2023-09-05 17:28:00,SystemResetWarning,0833.4,5.01,000.00,028.0,024.2,000.0,036.3,029.1,23.6,0000.0,0003.23,0010.07,0002.20
2023-09-05 17:29:00,SystemResetWarning,0833.4,5.01,000.00,027.9,024.4,000.0,036.3,029.1,24.0,0000.0,0003.25,0010.19,0002.18
2023-09-05 17:30:00,SystemResetWarning,0833.4,5.00,000.00,027.9,024.8,000.0,036.3,029.1,24.1,0000.0,0003.24,0010.28,0002.17
2023-09-05 17:31:00,SystemResetWarning,0833.4,5.00,000.00,027.9,025.2,000.0,036.3,029.3,24.0,0000.0,0003.23,0011.05,0002.15
2023-09-05 17:32:00,SystemResetWarning,0833.4,5.00,000.00,027.9,025.6,000.0,036.4,029.4,24.7,0000.0,0003.21,0010.62,0002.16
2023-09-05 17:33:00,SystemResetWarning,0833.4,5.00,000.00,027.9,025.9,000.0,036.4,029.5,23.9,0000.0,0003.21,0010.53,0002.16
2023-09-05 17:34:00,SystemResetWarning,0833.4,5.00,000.00,027.9,026.2,000.0,036.4,029.5,24.1,0000.0,0003.20,0011.68,0002.15
2023-09-05 17:35:00,SystemResetWarning,0833.4,5.00,000.00,028.0,026.4,000.0,036.4,029.6,24.5,0000.0,0003.19,0012.17,0002.16
2023-09-05 17:36:00,SystemResetWarning,0833.4,5.00,000.00,028.0,026.7,000.0,036.4,029.7,24.0,0000.0,0003.17,0012.24,0002.17
2023-09-05 17:37:00,SystemResetWarning,0833.4,5.00,000.00,028.1,026.8,000.0,036.4,029.8,24.4,0000.0,0003.19,0012.43,0002.20
2023-09-05 17:38:00,SystemResetWarning,0833.4,4.99,000.00,028.1,027.0,000.0,036.4,029.8,24.7,0000.0,0003.18,0013.37,0002.20
2023-09-05 17:39:00,SystemResetWarning,0833.5,4.99,000.00,028.2,027.1,000.0,036.5,029.9,24.4,0000.0,0003.19,0012.80,0002.22
2023-09-05 17:40:00,SystemResetWarning,0833.4,4.99,000.00,028.2,027.3,000.0,036.5,029.9,23.6,0000.0,0003.17,0012.12,0002.23
2023-09-05 17:41:00,SystemResetWarning,0833.4,4.99,000.00,028.3,027.1,000.0,036.5,029.9,23.8,0000.0,0003.18,0012.33,0002.24
2023-09-05 17:42:00,SystemResetWarning,0833.4,5.00,000.00,028.2,025.6,000.0,036.4,029.4,23.4,0000.0,0003.19,0011.72,0002.27
2023-09-05 17:43:00,SystemResetWarning,0833.4,5.00,000.00,028.1,024.4,000.0,036.3,029.1,23.9,0000.0,0003.20,0011.69,0002.27
2023-09-05 17:44:00,SystemResetWarning,0833.4,5.01,000.00,028.0,024.5,000.0,036.3,029.1,24.3,0000.0,0003.18,0011.39,0002.27
2023-09-05 17:45:00,SystemResetWarning,0833.4,5.01,000.00,027.9,024.8,000.0,036.3,029.2,24.6,0000.0,0003.17,0010.12,0002.27
2023-09-05 17:46:00,SystemResetWarning,0833.4,5.00,000.00,027.9,025.2,000.0,036.3,029.3,24.4,0000.0,0003.18,0009.86,0002.28
2023-09-05 17:47:00,SystemResetWarning,0833.4,5.01,000.00,027.9,025.6,000.0,036.3,029.4,24.2,0000.0,0003.17,0009.98,0002.29
2023-09-05 17:48:00,SystemResetWarning,0833.4,4.99,000.00,027.9,025.9,000.0,036.3,029.5,23.9,0000.0,0003.19,0010.76,0002.30
2023-09-05 17:49:00,SystemResetWarning,0833.4,5.00,000.00,027.9,026.2,000.0,036.3,029.5,23.7,0000.0,0003.18,0009.71,0002.29
2023-09-05 17:50:00,SystemResetWarning,0833.4,5.00,000.00,028.0,026.4,000.0,036.3,029.6,23.7,0000.0,0003.15,0010.25,0002.28
2023-09-05 17:51:00,SystemResetWarning,0833.4,5.01,000.00,028.0,026.6,000.0,036.4,029.7,23.6,0000.0,0003.15,0010.83,0002.28
2023-09-05 17:52:00,SystemResetWarning,0833.4,4.99,000.00,028.1,026.8,000.0,036.4,029.8,24.2,0000.0,0003.16,0010.54,0002.29
2023-09-05 17:53:00,SystemResetWarning,0833.4,5.00,000.00,028.1,027.0,000.0,036.4,029.8,24.5,0000.0,0003.14,0010.48,0002.28
2023-09-05 17:54:00,SystemResetWarning,0833.4,5.00,000.00,028.2,027.1,000.0,036.4,029.9,24.3,0000.0,0003.13,0010.69,0002.27
2023-09-05 17:55:00,SystemResetWarning,0833.4,5.00,000.00,028.2,027.2,000.0,036.5,029.9,24.2,0000.0,0003.17,0010.83,0002.27
2023-09-05 17:56:00,SystemResetWarning,0833.4,5.00,000.00,028.3,027.3,000.0,036.5,030.0,23.9,0000.0,0003.17,0010.89,0002.27
2023-09-05 17:57:00,SystemResetWarning,0833.4,5.00,000.00,028.2,026.4,000.0,036.4,029.7,23.8,0000.0,0003.15,0010.61,0002.27
2023-09-05 17:58:00,SystemResetWarning,0833.4,5.00,000.00,028.1,024.8,000.0,036.4,029.3,24.1,0000.0,0003.16,0009.87,0002.27
2023-09-05 17:59:00,SystemResetWarning,0833.3,5.02,000.00,028.0,024.3,000.0,036.3,029.2,24.1,0000.0,0003.14,0008.94,0002.27
